Weather History for Hobbs, NM

Change the Weather History Date:

Thursday, February 14, 2013

  Actual Average Record
Temperature  
Mean Temperature 45 °F -  
Max Temperature 62 °F 59 °F 78 °F (1954)
Min Temperature 28 °F 33 °F 9 °F (1951)
Degree Days  
Heating Degree Days 20    
Moisture  
Dew Point 17 °F    
Average Humidity 39    
Maximum Humidity 81    
Minimum Humidity 14    
Precipitation  
Precipitation 0.00 in - - ()
Sea Level Pressure  
Sea Level Pressure 30.04 in    
Wind  
Wind Speed 7 mph (NW)    
Max Wind Speed 23 mph    
Max Gust Speed 26 mph    
Visibility 10 miles    
Events      
Averages and records for this station are not official NWS values.
T = Trace of Precipitation, MM = Missing Value Source: NWS Daily Summary

Daily Weather History Graph

Daily Weather History Graph

Search for Another Location

Airport:

Trip Planner

Search our weather history database for the weather conditions in past years. The results will help you decide how hot, cold, wet, or windy it might be!

Date:

Astronomy

Feb. 14, 2013 Rise Set
Actual Time 6:36 AM MST 5:37 PM MST
Civil Twilight 6:11 AM MST 6:03 PM MST
Nautical Twilight 5:42 AM MST 6:32 PM MST
Astronomical Twilight 5:13 AM MST 7:00 PM MST
Moon 8:58 AM MST (2/14) 10:22 PM MST (2/14)
Length of Visible Light 11h 51m
Length of Day
11h 01m
Waxing Crescent, 22% of the Moon is Illuminated
Feb 14
Waxing Crescent
Feb 17
First Quarter
Feb 25
Full
Mar 4
Last Quarter
Mar 11
New

Hourly Weather History & Observations

Time (MST) Temp. Windchill Dew Point Humidity Pressure Visibility Wind Dir Wind Speed Gust Speed Precip Events Conditions
12:15 AM 32.0 °F - 10.4 °F 41% 30.01 in 10.0 mi Calm Calm - N/A   Clear
12:35 AM 32.0 °F 24.2 °F 10.4 °F 41% 30.01 in 10.0 mi WSW 9.2 mph - N/A   Clear
12:55 AM 32.0 °F - 10.4 °F 41% 30.01 in 10.0 mi Calm Calm - N/A   Clear
1:15 AM 32.0 °F 24.2 °F 10.4 °F 41% 30.02 in 10.0 mi West 9.2 mph - N/A   Clear
1:35 AM 32.0 °F - 10.4 °F 41% 30.02 in 10.0 mi Calm Calm - N/A   Clear
1:55 AM 30.2 °F 25.4 °F 12.2 °F 47% 30.01 in 10.0 mi West 4.6 mph - N/A   Clear
2:15 AM 30.2 °F 23.4 °F 10.4 °F 44% 30.00 in 10.0 mi WNW 6.9 mph - N/A   Clear
2:35 AM 28.4 °F - 12.2 °F 51% 30.00 in 10.0 mi Calm Calm - N/A   Clear
2:55 AM 28.4 °F - 12.2 °F 51% 30.00 in 10.0 mi Calm Calm - N/A   Clear
3:15 AM 32.0 °F - 14.0 °F 48% 30.00 in 10.0 mi Calm Calm - N/A   Clear
3:35 AM 28.4 °F 20.4 °F 14.0 °F 55% 30.00 in 10.0 mi WSW 8.1 mph - N/A   Clear
3:55 AM 32.0 °F 27.5 °F 12.2 °F 44% 30.00 in 10.0 mi WNW 4.6 mph - N/A   Clear
5:50 AM 37.4 °F 28.9 °F 14.0 °F 38% 30.01 in 10.0 mi West 13.8 mph - N/A   Clear
6:50 AM 37.4 °F 30.3 °F 14.0 °F 38% 30.03 in 10.0 mi West 10.4 mph - N/A   Clear
7:50 AM 41.0 °F 33.1 °F 15.8 °F 36% 30.05 in 10.0 mi West 15.0 mph - N/A   Clear
9:50 AM 53.6 °F - 17.6 °F 24% 30.04 in 10.0 mi WNW 16.1 mph - N/A   Clear
10:50 AM 57.2 °F - 15.8 °F 20% 30.04 in 10.0 mi West 13.8 mph 19.6 mph N/A   Clear
11:50 AM 59.0 °F - 14.0 °F 17% 30.01 in 10.0 mi West 12.7 mph 19.6 mph N/A   Clear
12:50 PM 59.0 °F - 14.0 °F 17% 29.98 in 10.0 mi West 6.9 mph 17.3 mph N/A   Clear
1:50 PM 62.6 °F - 12.2 °F 14% 29.97 in 10.0 mi West 11.5 mph - N/A   Clear
2:50 PM 62.6 °F - 14.0 °F 15% 29.97 in 10.0 mi West 11.5 mph - N/A   Clear
3:50 PM 60.8 °F - 14.0 °F 16% 29.98 in 10.0 mi West 11.5 mph - N/A   Clear
4:50 PM 59.0 °F - 14.0 °F 17% 29.99 in 10.0 mi WNW 9.2 mph - N/A   Clear
5:15 PM 59.0 °F - 14.0 °F 17% 29.99 in 10.0 mi WNW 8.1 mph - N/A   Clear
5:35 PM 55.4 °F - 14.0 °F 20% 29.99 in 10.0 mi Calm Calm - N/A   Clear
5:50 PM 50.0 °F - 14.0 °F 24% 29.99 in 10.0 mi NW 4.6 mph - N/A   Clear
5:55 PM 50.0 °F - 14.0 °F 24% 29.99 in 10.0 mi NNW 6.9 mph - N/A   Clear
6:15 PM 48.2 °F - 14.0 °F 25% 29.99 in 10.0 mi Calm Calm - N/A   Clear
6:35 PM 46.4 °F - 14.0 °F 27% 30.00 in 10.0 mi Calm Calm - N/A   Clear
6:55 PM 44.6 °F - 15.8 °F 31% 30.01 in 10.0 mi Calm Calm - N/A   Clear
7:15 PM 44.6 °F 42.2 °F 15.8 °F 31% 30.02 in 10.0 mi NNW 4.6 mph - N/A   Clear
7:35 PM 44.6 °F 40.2 °F 15.8 °F 31% 30.03 in 10.0 mi NNW 8.1 mph - N/A   Clear
7:55 PM 46.4 °F 41.9 °F 15.8 °F 29% 30.05 in 10.0 mi North 9.2 mph - N/A   Clear
8:15 PM 46.4 °F 40.7 °F 17.6 °F 32% 30.06 in 10.0 mi North 12.7 mph - N/A   Clear
8:35 PM 46.4 °F 39.5 °F 23.0 °F 40% 30.07 in 10.0 mi NNE 17.3 mph 23.0 mph N/A   Clear
8:55 PM 44.6 °F 37.4 °F 24.8 °F 46% 30.09 in 10.0 mi NNE 16.1 mph - N/A   Clear
9:15 PM 44.6 °F 37.4 °F 26.6 °F 49% 30.10 in 10.0 mi NNE 16.1 mph 23.0 mph N/A   Clear
9:35 PM 44.6 °F 36.9 °F 26.6 °F 49% 30.11 in 10.0 mi NNE 18.4 mph 23.0 mph N/A   Clear
10:15 PM 41.0 °F 31.4 °F 28.4 °F 61% 30.14 in 10.0 mi NNE 21.9 mph 26.5 mph N/A   Clear
10:35 PM 41.0 °F 31.1 °F 28.4 °F 61% 30.16 in 10.0 mi NNE 23.0 mph - N/A   Clear
10:55 PM 39.2 °F 30.2 °F 28.4 °F 65% 30.17 in 10.0 mi North 17.3 mph 23.0 mph N/A   Clear
11:15 PM 39.2 °F 30.2 °F 32.0 °F 75% 30.18 in 10.0 mi NNE 17.3 mph 24.2 mph N/A   Clear
11:35 PM 37.4 °F 28.2 °F 32.0 °F 81% 30.19 in 10.0 mi NNE 16.1 mph 23.0 mph N/A   Clear
11:55 PM 37.4 °F 28.2 °F 32.0 °F 81% 30.20 in 10.0 mi NNE 16.1 mph 21.9 mph N/A   Clear